Ocean Carrier — V2FD8 — position and weather

sailwx.info

Track history (hours):
 
Tides and Currents Weather Stations Pressure Air Temp Water Temp Dewpoint Dewpoint Depression Visibility Wind Speed Wind Dir Waves Ship Positions

Ocean Carrier

Last reported at 2016-Oct-01 04:33 UTC. Time now 2016-Oct-01 15:29 UTC.
Position N 49°54' W 003°08'.

Length 107 m; draft 8.4 m.

Type: Cargo ship. MMSI: 305644000.

Date/timePositionNaut miles runAvg speedWind from/ knotsBaromVisibWave heightAir tempDewpointWater temp
2016-Oct-01 04:33N 49°54' W 003°08'1010.2
2016-Oct-01 03:34N 49°59' W 002°54'10610.6
2016-Sep-30 17:32N 50°29' W 000°14'1111.6
2016-Sep-30 16:33N 50°32' E 000°03'6310.5
2016-Sep-30 10:33N 51°05' E 001°28'2311.3
2016-Sep-30 08:33N 51°22' E 001°52'174 9.0
2016-Sep-29 13:10N 53°33' E 004°59'38 8.3
2016-Sep-29 08:33N 53°46' E 005°60'8 7.7
2016-Sep-29 07:33N 53°48' E 006°12'59 8.5
2016-Sep-29 00:33N 54°02' E 007°51'29 9.6
2016-Sep-28 21:32N 53°57' E 008°39'16 8.0
2016-Sep-28 19:34N 53°53' E 009°05'4 1.3
2016-Sep-28 16:31N 53°55' E 009°11'0 0.0
2016-Sep-28 15:25N 53°55' E 009°11'38 5.6
2016-Sep-28 08:32N 54°21' E 009°59'31 6.3
2016-Sep-28 03:33N 54°35' E 010°47'1010.3
2016-Sep-28 02:33N 54°36' E 011°04'1010.2
2016-Sep-28 01:33N 54°33' E 011°21'2110.5
2016-Sep-27 23:33N 54°27' E 011°56'39 9.7
2016-Sep-27 19:33N 54°49' E 012°51'5410.9
2016-Sep-27 14:33N 55°13' E 014°16'1110.9
2016-Sep-27 13:33N 55°22' E 014°27'3511.0
2016-Sep-27 10:23N 55°40' E 015°19'107 7.6
2016-Sep-26 20:18N 57°16' E 016°43'7 9.6
2016-Sep-26 19:33N 57°16' E 016°29'0 0.1
2016-Sep-26 15:32N 57°16' E 016°29'0 0.0
2016-Sep-26 13:32N 57°16' E 016°29'0 0.0
2016-Sep-26 11:32N 57°16' E 016°29'0 0.0
2016-Sep-26 08:32N 57°16' E 016°29'  
Track history (hours):
 
Tides and Currents Weather Stations Pressure Air Temp Water Temp Dewpoint Dewpoint Depression Visibility Wind Speed Wind Dir Waves Ship Positions

Ocean Carrier

Last reported at 2016-Oct-01 04:33 UTC. Time now 2016-Oct-01 15:29 UTC.
Position N 49°54' W 003°08'.

Length 107 m; draft 8.4 m.

Type: Cargo ship. MMSI: 305644000.

Date/timePositionNaut miles runAvg speedWind from/ knotsBaromVisibWave heightAir tempDewpointWater temp
2016-Oct-01 04:33N 49°54' W 003°08'1010.2
2016-Oct-01 03:34N 49°59' W 002°54'10610.6
2016-Sep-30 17:32N 50°29' W 000°14'1111.6
2016-Sep-30 16:33N 50°32' E 000°03'6310.5
2016-Sep-30 10:33N 51°05' E 001°28'2311.3
2016-Sep-30 08:33N 51°22' E 001°52'174 9.0
2016-Sep-29 13:10N 53°33' E 004°59'38 8.3
2016-Sep-29 08:33N 53°46' E 005°60'8 7.7
2016-Sep-29 07:33N 53°48' E 006°12'59 8.5
2016-Sep-29 00:33N 54°02' E 007°51'29 9.6
2016-Sep-28 21:32N 53°57' E 008°39'16 8.0
2016-Sep-28 19:34N 53°53' E 009°05'4 1.3
2016-Sep-28 16:31N 53°55' E 009°11'0 0.0
2016-Sep-28 15:25N 53°55' E 009°11'38 5.6
2016-Sep-28 08:32N 54°21' E 009°59'31 6.3
2016-Sep-28 03:33N 54°35' E 010°47'1010.3
2016-Sep-28 02:33N 54°36' E 011°04'1010.2
2016-Sep-28 01:33N 54°33' E 011°21'2110.5
2016-Sep-27 23:33N 54°27' E 011°56'39 9.7
2016-Sep-27 19:33N 54°49' E 012°51'5410.9
2016-Sep-27 14:33N 55°13' E 014°16'1110.9
2016-Sep-27 13:33N 55°22' E 014°27'3511.0
2016-Sep-27 10:23N 55°40' E 015°19'107 7.6
2016-Sep-26 20:18N 57°16' E 016°43'7 9.6
2016-Sep-26 19:33N 57°16' E 016°29'0 0.1
2016-Sep-26 15:32N 57°16' E 016°29'0 0.0
2016-Sep-26 13:32N 57°16' E 016°29'0 0.0
2016-Sep-26 11:32N 57°16' E 016°29'0 0.0
2016-Sep-26 08:32N 57°16' E 016°29'  

Dump ship's entire track history